Regional Weather Roundup
Issued by NWS

Home | Current Version | Previous Version | Text Only | Print | Product List | Glossary On
Versions: 1 2 3 4 5 6 7 8 9 10 11 12 13 14 15 16 17 18 19 20 21 22 23 24 25 26 27 28 29 30 31 32 33 34 35 36 37 38 39 40 41 42 43 44 45 46 47 48 49 50
000
ASUS45 KBOI 290010
RWRID

IDAHO REGIONAL WEATHER ROUNDUP
NATIONAL WEATHER SERVICE BOISE ID
600 PM MDT THU MAY 28 2015

NOTE: "FAIR" INDICATES FEW OR NO CLOUDS BELOW 12000 FEET
WITH NO SIGNIFICANT WEATHER AND/OR OBSTRUCTIONS TO VISIBILITY

IDZ012-014-290100-
SOUTHWEST IDAHO


CITY           SKY/WX    TMP DP  RH WIND       PRES   REMARKS
BOISE          SUNNY     78  43  28 NW9G18    30.02F
CALDWELL       SUNNY     79  43  27 NW5       30.03F
$$

IDZ016-017-290100-
SOUTHCENTRAL IDAHO


CITY           SKY/WX    TMP DP  RH WIND       PRES   REMARKS
BURLEY         SUNNY     69  41  36 VRB5      30.08F
JEROME         SUNNY     71  37  28 SW7       30.08F
TWIN FALLS     SUNNY     74  37  26 NW10      30.07F
$$

IDZ019>023-290100-
SOUTHEAST IDAHO


CITY           SKY/WX    TMP DP  RH WIND       PRES   REMARKS
IDAHO FALLS    PTSUNNY   63  44  50 VRB5      30.14R
POCATELLO      MOSUNNY   67  38  34 SW7       30.12S
REXBURG        LGT RAIN  59  45  59 N6        30.16R
$$

IDZ006-010-011-018-031-032-290100-
CENTRAL IDAHO MOUNTAINS


CITY           SKY/WX    TMP DP  RH WIND       PRES   REMARKS
MCCALL         MOSUNNY   68  40  35 VRB3      30.11S
HAILEY         MOSUNNY   64  43  45 S9        30.13R
STANLEY          N/A     61  32  33 NW7       30.18R
SALMON         PTSUNNY   64  43  45 E10       30.12R
CHALLIS        LGT RAIN  63  43  48 NE12      30.14R
$$

IDZ002-004-006-007-026-290100-
NORTHERN IDAHO


CITY           SKY/WX    TMP DP  RH WIND       PRES   REMARKS
LEWISTON       SUNNY     82  44  26 VRB7      30.01F
LOWELL           N/A     78  50  37 CALM      30.05R
COEUR D`ALENE  PTSUNNY   75  48  38 SW3       30.03S
MULLAN PASS    CLOUDY    53  45  74 CALM      30.22R
$$



USA.gov is the U.S. government's official web portal to all federal, state and local government web resources and services.